Regional Weather Roundup
Issued by NWS

Home | Current Version | Previous Version | Text Only | Print | Product List | Glossary Off
Versions: 1 2 3 4 5 6 7 8 9 10 11 12 13 14 15 16 17 18 19 20 21 22 23 24 25 26 27 28 29 30 31 32 33 34 35 36 37 38 39 40 41 42 43 44 45 46 47 48 49 50

000
ASUS43 KMKX 051011
RWRWI

WISCONSIN REGIONAL WEATHER ROUNDUP
NATIONAL WEATHER SERVICE MILWAUKEE/SULLIVAN WI
500 AM CDT TUE MAY 05 2015

NOTE: "FAIR" INDICATES FEW OR NO CLOUDS BELOW 12,000 FEET WITH NO
SIGNIFICANT WEATHER AND/OR OBSTRUCTIONS TO VISIBILITY.

WIZ001-002-006>008-014>016-023>028-051100-
NORTHWEST WISCONSIN

CITY           SKY/WX    TMP DP  RH WIND       PRES   REMARKS
SUPERIOR ARPT  CLEAR     30  28  92 CALM      30.27R
ASHLAND        CLEAR     33  31  92 SW3       30.27F
HAYWARD        CLEAR     34  30  85 CALM      30.26S
SIREN          CLEAR     32  27  80 CALM      30.23S
CUMBERLAND     CLEAR     45  30  57 E5        30.23S
RICE LAKE      CLEAR     49  33  53 E7        30.24F
CHETEK         CLEAR     49  37  61 NE3       30.23S
LADYSMITH      PTCLDY    48  36  61 E7        30.27S
EAU CLAIRE     MOCLDY    48  39  71 NE8       30.21R
MENOMONIE      PTCLDY    48  39  71 NE5       30.22R
NEW RICHMOND   CLEAR     49  31  50 E9        30.20S
OSCEOLA        CLEAR     49  31  50 E7        30.23S
$$

WIZ003>005-009-010-017-018-051100-
NORTH CENTRAL WISCONSIN

CITY           SKY/WX    TMP DP  RH WIND       PRES   REMARKS
MANITOWISH WTR CLEAR     33  32  96 CALM      30.28F
ARBOR VITAE    CLEAR     39  36  87 CALM      30.28S
WOODRUFF       CLEAR     39  36  87 CALM      30.28S
RHINELANDER    CLEAR     39  36  89 CALM      30.29F
EAGLE RIVER    CLEAR     35  34  99 CALM      30.28F
LAND O LAKES   CLEAR     32  32  99 CALM      30.30F
PHILLIPS       CLEAR     43  34  69 CALM      30.26F
TOMAHAWK       PTCLDY    32  30  93 CALM      30.28S
MEDFORD        MOCLDY    42  36  78 E8        30.25S
MERRILL        MOCLDY    39  36  87 NE5       30.26F
$$

WIZ029-030-035-036-043>047-051100-
CENTRAL WISCONSIN

CITY           SKY/WX    TMP DP  RH WIND       PRES   REMARKS
WAUSAU         CLOUDY    46  33  60 E7        30.24S
MOSINEE        CLOUDY    43  32  65 E8        30.26S
MARSHFIELD     CLOUDY    49  34  56 E10       30.23S
STEVENS POINT  CLOUDY    46  34  62 E7        30.25S
WAUPACA        CLOUDY    50  37  62 NE3       30.26R
WAUTOMA        CLOUDY    51  37  58 NE8       30.25R
WISC RAPIDS    CLOUDY    50  33  52 E9        30.24S
CAMP DOUGLAS   CLOUDY    51  44  79 E6        30.21R
$$

WIZ011>013-019>022-031-037>040-048>050-051100-
NORTHEAST WISCONSIN

CITY           SKY/WX    TMP DP  RH WIND       PRES   REMARKS
ANTIGO         MOCLDY    42  34  72 NE7       30.28S
SHAWANO        CLOUDY    49  38  65 NE7       30.28S
OCONTO         CLOUDY    43  37  80 NE5       30.28S
STURGEON BAY   CLOUDY    46  32  57 NE7       30.30S
GREEN BAY      CLOUDY    50  39  66 NE9       30.26S
MANITOWOC      CLOUDY    46  36  68 NE5       30.27R
APPLETON       CLOUDY    48  36  61 NE9       30.25S
CLINTONVILLE   CLOUDY    46  36  66 NE7       30.26S
OSHKOSH        CLOUDY    52  37  56 E7        30.24R
$$

WIZ032>034-041-042-053>061-051100-
SOUTHWEST WISCONSIN

CITY           SKY/WX    TMP DP  RH WIND       PRES   REMARKS
LA CROSSE      CLOUDY    58  42  55 E10       30.17R
SPARTA         CLOUDY    53  39  58 E7        30.21R
VIROQUA        CLOUDY    50  46  84 E16       30.18S
BOSCOBEL       CLOUDY    52  48  86 NE8       30.17F
PRAIRIE DU CHI CLOUDY    53  47  81 E12       30.14S
PLATTEVILLE    CLOUDY    51  49  90 E14       30.15S
$$

WIZ056-057-062-063-064-067-068-051100-
SOUTH CENTRAL WISCONSIN

CITY           SKY/WX    TMP DP  RH WIND       PRES   REMARKS
REEDSBURG      RAIN      49  45  86 E5        30.22F
BARABOO/DELLS  NOT AVBL
LONE ROCK      LGT RAIN  51  47  86 E15       30.19F
MINERAL POINT  LGT RAIN  52  46  82 E12       30.17S
MADISON        LGT RAIN  50  45  83 E6        30.22R
MIDDLETON      CLOUDY    51  46  83 E8        30.22S
WATERTOWN      CLOUDY    49  46  86 NE5       30.23S
MONROE         LGT RAIN  50  48  93 NE10      30.17F
JANESVILLE     LGT RAIN  52  48  87 E6        30.20R
$$

WIZ051-052-058>065-066-070>072-051100-
SOUTHEAST WISCONSIN

CITY           SKY/WX    TMP DP  RH WIND       PRES   REMARKS
MILWAUKEE      LGT RAIN  47  40  76 NE10      30.24R
WAUKESHA       DRIZZLE   45  41  87 NE7       30.24F
MILWAUKEE/TIMM LGT RAIN  46  37  71 NE6       30.26R
RACINE         RAIN      47  41  80 NE7       30.25R
BURLINGTON     LGT RAIN  47  43  85 NE3       30.22S
KENOSHA        LGT RAIN  49  45  86 E9        30.21F
FOND DU LAC    CLOUDY    53  34  48 E6        30.25R
SHEBOYGAN      CLOUDY    47  35  63 E6        30.27R
WEST BEND      LGT RAIN  46  39  76 NE6       30.26R
JUNEAU         DRIZZLE   49  40  70 E9        30.25R
$$

LSZ147-162-051100-
LAKE SUPERIOR

STATION/POSITION TIME  TEMP    WIND        PRES    WAVE
                       AIR SEA DIR/SP/G            HT/PER
                 (UTC) (F)     (DEG/KT/KT) (MB)    (FT/S)
W MID LAKE BUOY  0950   40 35   30/  4/  6 1026.0S   0
DEVILS ISLAND    1000   43     120/  6/  7 1025.9R
PORT WING        0900   36     140/  3/  4 1024.7
SAXON HARBOR     0940   35        CALM     1024.4F
$$

LMZ867-665-643>646-051100-
LAKE MICHIGAN

STATION/POSITION TIME  TEMP    WIND        PRES    WAVE
                       AIR SEA DIR/SP/G            HT/PER
                 (UTC) (F)     (DEG/KT/KT) (MB)    (FT/S)
CHAMBERS ISLAND  0900   43      CALM  /  2 1025.7S
NORTHPORT PIER   0900   44     310/  3/  4 1025.7S
SISTER BAY       0747   47     110/  1/  6   N/A
KEWAUNEE LAKESHO 0900   47      40/ 12/ 16 1024.0R
SHEBOYGAN LAKESH 1000   44      10/  9/ 10 1025.7R
PORT WASHINGTON  0920   51     360/  3/ 15 1025.1R
ATWATER BUOY     0900   46     360/ 10/ 10 1025.2R
MILWAUKEE LAKESH 0900   50      30/  6/  8   N/A
KENOSHA   LAKESH 1000   47      30/ 13/ 14 1023.0F
$$

TC  - TEMPERATURE IN CELSIUS
VSB - VISIBILITY IN STATUTE MILES
WCI - WIND CHILL INDEX
HX  - HEAT INDEX



USA.gov is the U.S. government's official web portal to all federal, state and local government web resources and services.